www.pogodaiklimat.ru

Погода и климат >> Архив погоды >> Россия >> Коми >> Якша


ПОГОДА в Якше

  • Прогноз погоды в Якше
  • Монитор погоды в Якше

АРХИВ ПОГОДЫ в Якше

Время (UTC), дата Ветер
(напр.,м/с)
 
Видим.   Явления Облачность Т
(С)
Тd
(С)
f
(%)
Тe
(С)
Тes
(С)
Комфортность P
(гПа)
Po
(гПа)
Тmin
(С)
Tmax
(С)
R
(мм)
R24
(мм)
S
(см)
15 10.08 В 1 10 км 9/9 800 м
[Cu Sc]
+14.7 +9.1 69 +15 +15 1007.0 991.7 +16.5
18 10.08 штиль 0 10 км 9/9 500 м
[Sc]
+11.9 +9.7 86 +11 +11 1007.7 992.2
21 10.08 СВ 1 10 км 9/9 700 м
[Sc]
+11.6 +9.0 84 +11 +11 1007.0 991.5
00 11.08 С 1 10 км 10/10 660 м
[Sc]
+10.8 +9.4 91 +10 +10 1007.2 991.6
03 11.08 СВ 1 4000 м слаб. ливневой дождь 10/6 600 м
[Cb cap Ac und]
+10.6 +9.9 95 +10 +10 1006.3 990.7 +10.4 0.5
06 11.08 СВ 2 4000 м слаб. ливневой дождь 10/10 480 м
[Cb cap]
+10.5 +10.2 98 +9 +9 1005.3 989.8 +10.1
09 11.08 СВ 1 4000 м слаб. ливневой дождь 10/10 300 м
[Cb cap]
+12.4 +12.0 97 +12 +12 1004.2 988.8
12 11.08 С 2 4000 м слаб. дождь 10/10 270 м
[Frnb Ns]
+12.7 +12.4 98 +12 +12 1003.4 988.0
15 11.08 СВ 2 4000 м слаб. дождь 10/10 270 м
[Frnb Ns]
+11.3 +11.0 98 +10 +10 1002.7 987.2 +12.8 20
18 11.08 С 2 4000 м слаб. дождь 10/10 300 м
[Frnb Ns]
+10.4 +10.1 98 +9 +9 1001.0 985.5
21 11.08 С 2 4000 м слаб. дождь 10/10 270 м
[Frnb Ns]
+10.4 +10.1 98 +9 +9 999.7 984.2
00 12.08 С 3 4000 м слаб. дождь 10/10 270 м
[Frnb Ns]
+8.9 +8.5 97 +6 +6 1000.3 984.7
03 12.08 С 3 4000 м слаб. дождь 10/10 240 м
[Frnb Ns]
+7.8 +7.5 98 +5 +5 1001.9 986.3 +7.8 18
06 12.08 С 3 4000 м слаб. дождь 10/10 330 м
[Frnb Ns]
+8.2 +7.7 97 +5 +5 1004.0 988.4
09 12.08 С 3 4000 м слаб. морось {дождь} 10/10 330 м
[St]
+8.9 +8.2 95 +6 +6 1006.6 991.0
12 12.08 С 3 4000 м слаб. морось {дождь} 10/10 360 м
[St]
+7.8 +7.3 97 +5 +5 1009.6 993.8
15 12.08 С 3
{10}
4000 м слаб. дождь {морось} 10/8 300 м
[Frnb As op]
+7.0 +6.6 97 +4 +4 1011.0 995.2 +8.9 2
18 12.08 С 3 4000 м слаб. дождь {морось} 10/8 270 м
[Frnb As op]
+6.8 +6.5 98 +4 +4 1012.1 996.2
21 12.08 СВ 2 4000 м слаб. дождь 10/8 300 м
[Frnb As op]
+7.1 +6.9 99 +5 +5 1011.9 996.0
00 13.08 СВ 2 4000 м слаб. дождь 10/8 300 м
[Frnb As op]
+7.7 +7.4 98 +5 +5 1012.2 996.4
03 13.08 СВ 2 4000 м слаб. дождь 10/8 270 м
[Frnb As op]
+8.5 +8.2 98 +6 +7 1012.3 996.6 +6.8 0.8
06 13.08 СВ 1 10 км {дождь} 10/8 420 м
[Cb cap As trans]
+10.6 +9.9 95 +10 +11 1012.2 996.5
09 13.08 СВ 1 4000 м слаб. ливневой дождь 10/8 450 м
[Cb cap As trans]
+13.3 +11.7 90 +13 +14 1012.8 997.3
12 13.08 С 1 10 км {ливн. осадки} 9/9 600 м
[Cb cap]
+14.7 +12.0 84 +15 +16 1012.7 997.3
15 13.08 СВ 1 4000 м слаб. ливневой дождь 10/9 300 м
[Cb cap As op]
+11.9 +11.4 97 +12 +12 1013.4 997.8 +14.7 2
18 13.08 штиль 0 10 км {ливн. осадки} 10/9 270 м
[Cb cap As op]
+11.0 +10.8 99 +10 +10 1013.4 997.7
21 13.08 штиль 0 10 км 10/10 300 м
[Frnb]
+10.5 +10.1 97 +10 +10 1013.5 997.8
00 14.08 штиль 0 10 км 10/6 660 м
[Sc Ac trans]
+9.9 +9.6 98 +9 +9 1013.3 997.6
03 14.08 штиль 0 10 км 10/3 600 м
[Sc Ac As]
+11.3 +10.7 96 +11 +11 1013.4 997.8 +9.6 0.8
06 14.08 штиль 0 10 км 10/10 300 м
[Frnb]
+13.3 +11.7 90 +13 +13 1013.6 998.0
09 14.08 Ю 1 10 км 10/10 540 м
[Cb cap]
+15.7 +13.2 85 +16 +16 1013.0 997.7
12 14.08 З 2 10 км в посл. час ливневой дождь 10/10 540 м
[Cb cap]
+15.4 +13.4 88 +15 +15 1013.4 998.0
15 14.08 Ю 1 4000 м слаб. ливневой дождь 10/10 360 м
[Cb cap]
+13.7 +13.3 97 +14 +14 1013.3 997.8 +15.8 0.3
18 14.08 СЗ 2 10 км в посл. час ливневой дождь 10/10 400 м
[Cb cap]
+13.4 +13.0 97 +13 +13 1014.1 998.6
21 14.08 СЗ 1 10 км 10/10 210 м
[St]
+12.4 +12.1 98 +12 +12 1014.1 998.5
00 15.08 СЗ 1 4000 м дымка 10/10 210 м
[St]
+11.8 +11.6 99 +12 +12 1014.7 999.1
03 15.08 штиль 0 10 км 10/10 400 м
[Cb cap]
+11.6 +10.5 93 +11 +11 1015.4 999.7 +11.0 0.3
06 15.08 З 1 10 км 10/10 450 м
[Cb cap]
+12.7 +11.2 91 +13 +13 1015.4 999.8
09 15.08 ЮЗ 1 10 км 9/9 700 м
[Sc]
+15.0 +11.7 81 +16 +17 1015.3 999.8
12 15.08 Ю 1 10 км 9/3 600 м
[Cu hum Ac trans Cc]
+16.8 +10.9 68 +18 +20 1014.3 999.0
15 15.08 штиль 0 10 км 10/3 600 м
[Sc Ac As]
+14.6 +12.7 88 +14 +14 1013.6 998.1 +17.2
18 15.08 Ю 1 10 км 10/8 630 м
[Sc Ac trans]
+13.9 +12.4 91 +14 +14 1013.0 997.5
21 15.08 Ю 1 10 км 9/8 600 м
[Sc Ac trans]
+13.7 +12.6 93 +14 +14 1012.3 996.8
00 16.08 Ю 1 10 км 10/8 450 м
[Cb cap Ac trans]
+14.9 +13.6 92 +15 +15 1010.1 994.7
03 16.08 ЮЗ 3 10 км {ливн. осадки} 10/8 480 м
[Cb cap Ac As]
+16.0 +14.5 91 +16 +16 1009.8 994.5 +13.2 0.0
06 16.08 ЮЗ 3 10 км {ливн. осадки} 9/9 630 м
[Cb cap]
+19.0 +15.5 80 +21 +21 комфорт 1010.3 995.1
09 16.08 З 4 10 км 10/3 600 м
[Cu hum Ci sp]
+21.3 +11.0 52 +23 +27 комфорт 1010.8 995.8
12 16.08 З 3 10 км 9/0
[Ci sp]
+21.0 +8.7 45 +23 +26 комфорт 1011.8 996.7
15 16.08 З 2 10 км 10/0
[Ac As Ci sp]
+18.1 +8.4 53 +19 +19 1012.9 997.6 +22.3
18 16.08 штиль 0 10 км 8/0
[Ac trans Ci fib]
+12.0 +10.8 92 +11 +11 1013.8 998.2
21 16.08 штиль 0 10 км 6/0
[Ci fib]
+8.4 +8.2 99 +7 +7 1015.4 999.6
00 17.08 штиль 0 10 км 6/0
[Ci fib]
+6.5 +6.4 99 +5 +5 1016.7 1000.8
03 17.08 ЮЗ 1 10 км 10/0
[Ac trans Ci sp]
+10.6 +9.9 95 +10 +12 1017.4 1001.7 +6.4
06 17.08 Ю 1 10 км 8/0
[Ci]
+18.4 +10.7 61 +20 +27 1017.7 1002.4
09 17.08 С 2 10 км 8/6 720 м
[Cu med, cong Ci fib]
+19.1 +8.7 51 +20 +24 1017.8 1002.5
12 17.08 СЗ 2 10 км 8/8 800 м
[Cu med, cong]
+21.0 +7.4 41 +23 +24 комфорт 1017.8 1002.6

 

Местоположение метеостанции Якша (Коми, Россия): широта 61.83 долгота 56.87 высота над уровнем моря 131 м.

В архиве по умолчанию представлена погода в Якше за последнюю неделю. Архивные данные за месяц целиком и за предыдущие месяцы, начиная с января 2011 года, Вы можете получить, выбрав интересующий диапазон дат из раскрывающегося списка и нажав кнопку "Ввод!".


*Определитесь, кто Вы:
робот инопланетянин человек

Внимание! Время в таблицах - всемирное. Для получения местного времени необходимо прибавить поправку, которая равна 3 ч.

Смотрите также архив погоды в соседних городах и на ближайших метеорологических станциях:

Погода в Троицко-Печорском (Коми, Россия) (103 км)
Погода в Ныробе (Пермский край, Россия) (123 км)
Погода в Помоздино (Коми, Россия) (145 км)
Погода в Чердыни (Пермский край, Россия) (160 км)
Погода в Усть-Куломе (Коми, Россия) (169 км)
Погода в Бурмантово (Свердловская область, Россия) (200 км)
Погода в Приполярном (Ханты-Мансийский АО, Россия) (214 км)
Погода в Няксимволе (Ханты-Мансийский АО, Россия) (218 км)
Погода в Гайнах (Пермский край, Россия) (219 км)
Погода в Вуктыле (Коми, Россия) (224 км)

Пояснения к столбцам:

Ветер - указаны скорость ветра в м/с - средняя за 10 мин, порывы в срок и между сроками (в фигурных скобках) и направление, откуда дует ветер: С - северный, СВ - северо-восточный, В - восточный, ЮВ - юго-восточный, Ю - южный, ЮЗ - юго-западный, З - западный, СЗ - северо-западный.
Видимость - горизонтальная дальность видимости в метрах или километрах. При видимости от 1 до 10 км при отсутствии осадков обычно наблюдается дымка, при ухудшении видимости до 1 км и менее - туман. В сухую погоду видимость может ухудшаться дымом, пылью или мглою.
Явления - указаны атмосферные явления, наблюдавшиеся в срок или в последний час перед сроком; фигурными скобками обозначены явления, наблюдавшиеся между сроками (за 1-3 часа до срока); квадратными скобками обозначены град или гололедные отложения с указанием их диаметра в мм.
Облачность - указаны через наклонную черту общая и нижняя облачность в баллах и высота нижней границы облаков в метрах; квадратными скобками обозначены формы облаков: Ci - перистые, Cs - перисто-слоистые, Cc - перисто-кучевые, Ac - высококучевые, As - высокослоистые, Sc - слоисто-кучевые, Ns - слоисто-дождевые, Cu - кучевые, Cb - кучево-дождевые. Подробнее классификацию облаков см. в Атласе облаков (PDF).
T - Температура воздуха - температура, измеренная на высоте 2 м над землей.
Td - Температура точки росы - температура, при понижении до которой содержащийся в воздухе водяной пар достигнет насыщения.
f - Относительная влажность воздуха - влажноcть воздуха, измеренная на высоте 2 м над землей.
Te - Эффективная температура - температура, которую ощущает одетый по сезону человек в тени. Характеристика душности погоды. При расчете учитывается влияние влажности воздуха и скорости ветра на теплоощущения человека.
Tes - Эффективная температура на солнце - температура, которую ощущает человек, с поправкой на солнечный нагрев. Характеристика знойности погоды. Зависит от высоты солнца над горизонтом, облачности и скорости ветра. Ночью, в пасмурную погоду, а также при ветре 12 м/с и более поправка равна нулю.
P - Атмосферное давление - приведенное к уровню моря атмосферное давление.
Po - Атмосферное давление - измеренное на уровне метеостанции атмосферное давление.
Tmin - Минимальная температура - минимум температуры воздуха на высоте 2 м над землей.
Tmax - Максимальная температура - максимум температуры воздуха на высоте 2 м над землей.
R - Количество осадков - Количество выпавших осадков за период времени, мм. При наведении курсора мыши на число - период времени, за который выпало указанное количество осадков.
R24 - Количество осадков - Количество выпавших осадков за 24 часа, мм.
S - Снежный покров - Высота снежного покрова, см. При наведении курсора мыши на число - состояние снежного покрова и степень покрытия местности в баллах.